Elmira, NY

6:15 PM EDT on September 20, 2017 (GMT -0400)
Elmira-Corning Regional

Weather History for KELM - September, 2013

Change the Weather History Date:

Monday, September 23, 2013

  Actual Average Record
Temperature  
Mean Temperature 50 °F -  
Max Temperature 60 °F 68 °F 90 °F (1965)
Min Temperature 39 °F 44 °F 29 °F (1947)
Degree Days  
Heating Degree Days 15    
Moisture  
Dew Point 40 °F    
Average Humidity 68    
Maximum Humidity 93    
Minimum Humidity 49    
Precipitation  
Precipitation 0.00 in - - ()
Sea Level Pressure  
Sea Level Pressure 30.09 in    
Wind  
Wind Speed 5 mph (North)    
Max Wind Speed 14 mph    
Max Gust Speed 18 mph    
Visibility 10 miles    
Events      
Averages and records for this station are not official NWS values.
T = Trace of Precipitation, MM = Missing Value Source: NWS Daily Summary

Daily Weather History Graph

Daily Weather History Graph

Search for Another Location

Airport or City:

Trip Planner

Search our weather history database for the weather conditions in past years. The results will help you decide how hot, cold, wet, or windy it might be!

Date:

Astronomy

Sep. 23, 2013 Rise Set
Actual Time 6:56 AM EDT 7:02 PM EDT
Civil Twilight 6:28 AM EDT 7:30 PM EDT
Nautical Twilight 5:55 AM EDT 8:03 PM EDT
Astronomical Twilight 5:22 AM EDT 8:36 PM EDT
Moon 9:28 PM EDT (9/23) 11:18 AM EDT (9/23)
Length of Visible Light 13h 02m
Length of Day
12h 06m
Waning Gibbous, 81% of the Moon is Illuminated
Sep 23
Waning Gibbous
Sep 26
Last Quarter
Oct 4
New
Oct 11
First Quarter
Oct 18
Full

Hourly Weather History & Observations

Time (EDT) Temp. Windchill Dew Point Humidity Pressure Visibility Wind Dir Wind Speed Gust Speed Precip Events Conditions
12:53 AM 48.9 °F - 39.0 °F 69% 30.01 in 10.0 mi Calm Calm - N/A   Overcast
1:53 AM 48.9 °F - 39.0 °F 69% 30.01 in 10.0 mi West 5.8 mph - N/A   Overcast
2:53 AM 48.9 °F - 39.9 °F 71% 30.01 in 10.0 mi West 4.6 mph - N/A   Overcast
3:53 AM 48.0 °F - 39.9 °F 74% 30.02 in 10.0 mi West 5.8 mph - N/A   Overcast
4:53 AM 48.9 °F - 41.0 °F 74% 30.03 in 10.0 mi NW 4.6 mph - N/A   Overcast
5:53 AM 48.0 °F - 42.1 °F 80% 30.05 in 10.0 mi Variable 5.8 mph - 0.00 in   Overcast
6:53 AM 48.0 °F - 41.0 °F 77% 30.07 in 10.0 mi NNW 5.8 mph - N/A   Overcast
7:53 AM 48.9 °F - 41.0 °F 74% 30.09 in 10.0 mi NW 5.8 mph - N/A   Overcast
8:53 AM 50.0 °F - 39.9 °F 68% 30.10 in 10.0 mi North 4.6 mph - N/A   Overcast
9:05 AM 50.0 °F - 39.2 °F 66% 30.09 in 10.0 mi Variable 3.5 mph - N/A   Overcast
9:53 AM 51.1 °F - 39.9 °F 66% 30.11 in 10.0 mi NE 9.2 mph - N/A   Overcast
10:04 AM 51.8 °F - 39.2 °F 62% 30.10 in 10.0 mi North 5.8 mph - N/A   Overcast
10:14 AM 51.8 °F - 39.2 °F 62% 30.10 in 10.0 mi NNW 5.8 mph - N/A   Overcast
10:53 AM 53.1 °F - 39.9 °F 61% 30.12 in 10.0 mi NNE 13.8 mph - N/A   Mostly Cloudy
11:53 AM 53.1 °F - 39.0 °F 59% 30.13 in 10.0 mi North 8.1 mph - N/A   Overcast
12:53 PM 53.1 °F - 39.0 °F 59% 30.13 in 10.0 mi NNW 8.1 mph - N/A   Overcast
1:53 PM 55.0 °F - 39.0 °F 55% 30.12 in 10.0 mi NNW 11.5 mph 18.4 mph N/A   Overcast
2:53 PM 57.9 °F - 39.9 °F 51% 30.09 in 10.0 mi NNE 12.7 mph 17.3 mph N/A   Mostly Cloudy
3:53 PM 59.0 °F - 39.9 °F 49% 30.08 in 10.0 mi North 10.4 mph - N/A   Partly Cloudy
4:53 PM 59.0 °F - 39.9 °F 49% 30.08 in 10.0 mi North 8.1 mph - N/A   Clear
5:53 PM 57.0 °F - 41.0 °F 55% 30.09 in 10.0 mi NNE 8.1 mph - N/A   Clear
6:53 PM 51.1 °F - 41.0 °F 68% 30.11 in 10.0 mi NNE 5.8 mph - N/A   Clear
7:53 PM 48.9 °F - 41.0 °F 74% 30.11 in 10.0 mi NNE 4.6 mph - N/A   Clear
8:53 PM 44.1 °F 42.5 °F 39.9 °F 85% 30.12 in 10.0 mi NNE 3.5 mph - N/A   Clear
9:53 PM 43.0 °F - 39.9 °F 89% 30.13 in 10.0 mi Calm Calm - N/A   Clear
10:53 PM 41.0 °F - 37.9 °F 89% 30.14 in 10.0 mi Calm Calm - N/A   Clear
11:53 PM 39.0 °F - 37.0 °F 93% 30.14 in 10.0 mi Calm Calm - N/A   Clear